SCP
0 0 0 0 0 0 0 0 0 0 0 0 0 0 0 0 0 0 0 0 0 0
0 0 0 0 0 0 0 0 0 0 0 0 0 0 0 0 0 0 0 0 0 0
0 0 0 0 0 0 0 0 0 0 0 0 0 0 0 0 0 0 0 0 0 0
0 0 0 0 0 0 0 0 0 0 0 0 0 0 0 0 0 0 0 0 0 0
0 0 0 0 0 0 0 0 0 0 0 0 0 0 0 0 0 0 0 0 0 0
0 0 0 0 0 0 0 0 0 0 0 0 0 0 0 0 0 0 0 0 0 0
0 0 0 0 0 0 0 0 0 0 0 0 0 0 0 0 0 0 0 0 0 0
0 0 0 0 0 0 0 0 0 0 0 0 0 0 0 0 0 0 0 0 0 0
-0 0 0 0 0 0 0 0 0 0 0 0 0 0 0 0 0 0 0 0 0 0
-0 -0 -0 -0 0 0 0 0 0 0 0 0 0 0 0 0 0 0 0 0 0 0
-0 -0 -0 -0 -0 -0 -0 -0 0 0 0 0 0 0 0 0 0 0 0 0 0 0
-0 -0 -0 -0 -0 -0 -0 -0 -0 0 0 0 0 0 0 0 0 0 0 0 0 0
-0 -0 -0 -0 -0 0 -0 -0 -0 0 0 0 0 0 0 0 0 0 0 0 0 0
-0 -0 -0 -0 -0 -0 0 0 -0 -0 0 0 0 0 0 0 0 0 0 0 0 0
Wind_Speed_500mb
90 94 96 96 100 102 103 98 97 96 93 93 97 97 94 94 93 92 94 96 93 90
86 93 100 99 102 103 105 107 104 100 99 96 93 93 96 98 97 97 95 98 99 96
59 70 80 91 100 100 106 106 104 103 103 102 99 94 95 99 101 103 100 100 101 99
42 52 61 74 88 91 93 96 103 104 104 104 102 102 99 98 101 106 103 103 103 101
45 49 52 61 74 81 91 98 102 102 105 106 106 103 105 105 103 106 109 106 102 101
42 44 44 45 54 61 67 74 86 98 105 106 106 105 106 105 106 108 109 108 103 102
57 55 53 51 49 53 59 68 74 82 93 100 103 107 107 107 107 106 108 107 105 102
75 69 66 63 62 62 63 65 68 77 85 91 99 108 110 109 109 107 107 105 105 103
83 82 77 74 73 73 75 75 74 75 80 86 95 100 101 111 109 108 109 112 106 103
93 92 88 84 81 81 79 78 84 85 81 86 92 99 98 98 106 108 109 108 106 106
109 105 102 100 95 92 86 85 86 89 93 88 91 93 101 100 93 102 110 112 110 106
118 118 115 106 106 103 101 97 95 91 92 95 99 90 95 98 100 95 111 113 109 107
120 122 123 120 112 109 108 110 106 101 98 97 103 98 96 92 101 110 110 109 111 107
121 119 120 128 126 112 109 111 114 114 107 105 106 102 101 98 93 116 115 119 112 113
Wind_Direction_500mb
262 263 266 267 267 270 271 271 272 272 268 265 262 260 258 257 257 256 256 256 255 256
271 271 271 274 272 273 274 276 276 274 273 270 267 263 261 259 259 258 257 257 257 255
288 285 285 280 274 276 277 277 277 277 277 275 272 268 265 263 261 259 259 258 258 257
303 301 295 286 282 280 281 279 277 278 277 276 274 272 268 265 263 261 260 259 258 256
306 304 303 296 286 284 282 282 280 279 276 276 276 274 271 267 263 261 260 259 256 254
318 316 318 311 301 294 293 291 285 280 276 274 274 274 273 271 267 263 260 259 255 255
332 329 326 317 309 303 298 295 291 284 279 273 271 271 271 269 268 265 261 258 255 255
328 320 315 313 309 305 298 296 295 289 280 275 270 267 267 267 264 264 262 258 256 256
324 322 316 311 306 300 302 297 295 289 287 279 272 268 267 266 264 263 261 256 256 255
319 315 314 312 308 303 301 299 295 292 289 285 280 273 268 265 265 263 262 259 253 251
316 313 311 309 306 305 303 300 295 292 290 286 280 277 271 266 262 262 263 259 255 251
311 310 309 307 305 303 303 300 295 293 288 284 279 278 273 267 261 255 255 260 254 252
304 305 304 304 303 301 298 297 296 291 287 282 278 275 273 266 260 253 249 247 249 249
300 298 298 299 299 300 296 292 292 291 286 283 277 272 270 263 258 256 253 245 243 245
Wind_Speed_850mb
90 94 96 96 100 102 103 98 97 96 93 93 97 97 94 94 93 92 94 96 93 90
86 93 100 99 102 103 105 107 104 100 99 96 93 93 96 98 97 97 95 98 99 96
59 70 80 91 100 100 106 106 104 103 103 102 99 94 95 99 101 103 100 100 101 99
42 52 61 74 88 91 93 96 103 104 104 104 102 102 99 98 101 106 103 103 103 101
45 49 52 61 74 81 91 98 102 102 105 106 106 103 105 105 103 106 109 106 102 101
42 44 44 45 54 61 67 74 86 98 105 106 106 105 106 105 106 108 109 108 103 102
57 55 53 51 49 53 59 68 74 82 93 100 103 107 107 107 107 106 108 107 105 102
75 69 66 63 62 62 63 65 68 77 85 91 99 108 110 109 109 107 107 105 105 103
83 82 77 74 73 73 75 75 74 75 80 86 95 100 101 111 109 108 109 112 106 103
93 92 88 84 81 81 79 78 84 85 81 86 92 99 98 98 106 108 109 108 106 106
109 105 102 100 95 92 86 85 86 89 93 88 91 93 101 100 93 102 110 112 110 106
118 118 115 106 106 103 101 97 95 91 92 95 99 90 95 98 100 95 111 113 109 107
120 122 123 120 112 109 108 110 106 101 98 97 103 98 96 92 101 110 110 109 111 107
121 119 120 128 126 112 109 111 114 114 107 105 106 102 101 98 93 116 115 119 112 113
Wind_Direction_850mb
262 263 266 267 267 270 271 271 272 272 268 265 262 260 258 257 257 256 256 256 255 256
271 271 271 274 272 273 274 276 276 274 273 270 267 263 261 259 259 258 257 257 257 255
288 285 285 280 274 276 277 277 277 277 277 275 272 268 265 263 261 259 259 258 258 257
303 301 295 286 282 280 281 279 277 278 277 276 274 272 268 265 263 261 260 259 258 256
306 304 303 296 286 284 282 282 280 279 276 276 276 274 271 267 263 261 260 259 256 254
318 316 318 311 301 294 293 291 285 280 276 274 274 274 273 271 267 263 260 259 255 255
332 329 326 317 309 303 298 295 291 284 279 273 271 271 271 269 268 265 261 258 255 255
328 320 315 313 309 305 298 296 295 289 280 275 270 267 267 267 264 264 262 258 256 256
324 322 316 311 306 300 302 297 295 289 287 279 272 268 267 266 264 263 261 256 256 255
319 315 314 312 308 303 301 299 295 292 289 285 280 273 268 265 265 263 262 259 253 251
316 313 311 309 306 305 303 300 295 292 290 286 280 277 271 266 262 262 263 259 255 251
311 310 309 307 305 303 303 300 295 293 288 284 279 278 273 267 261 255 255 260 254 252
304 305 304 304 303 301 298 297 296 291 287 282 278 275 273 266 260 253 249 247 249 249
300 298 298 299 299 300 296 292 292 291 286 283 277 272 270 263 258 256 253 245 243 245